Location: Baumgarten
(49.0970°N, 12.7493°E)
Time: 08:06:00
(UTC+00:00)

Cosmos 1959 Rocket - Pass Details

Date: 05 July 2020
Orbit: 948 x 996 km, 82.9° (Epoch: 05 August)

Event Time Altitude Azimuth Distance (km) Brightness Sun altitude
Exits shadow 23:06:19 28° 196° (SSW) 1,696 5.2 -18.2°
Maximum altitude 23:09:42 80° 279° (W) 981 4.5 -18.2°
Drops below altitude 10° 23:15:57 10° 8° (N) 2,721 8.1 -18.2°
Sets 23:18:30 0° 9° (N) 3,680 9.2 -18.2°
